Date String (YYYY-MM-DD hh:mm:ss) UTC,Instrument flags,absolute air pressure of the measurement (hPa),sample flow rate (lpm),inlet stack bypass flow (lpm),air temperature of the measurement (°C),ambient temperature measured by the external sensor (°C),aerosol sample conditioner tube jacket temperature (°C),OPC LED temperature (°C),internal box temperature (°C),relative humidity of the measurement (%),span deviation,mass concentration of particles derived from Lorenz-Mie calculation of OPC scattering (μg/m³),mass concentration of particles derived from Lorenz-Mie calculation of OPC scattering (μg/m³),mass concentration of particles derived from Lorenz-Mie calculation of OPC scattering (μg/m³)
DateTimeUTC,F1_M11,P_M11,Q1_M11,Q2_M11,T1_M11,T2_M11,T3_M11,T4_M11,T5_M11,U1_M11,ZSPAN_M11,X0_M11,X2_M11,X1_M11
2024-06-05 16:00:00,SystemResetWarning,0828.6,4.99,000.00,029.0,026.8,000.0,037.8,030.2,016.9,0000.0,0012.93,0003.09,0001.10
2024-06-05 16:01:00,SystemResetWarning,0828.6,5.00,000.00,029.1,027.2,000.0,037.7,030.5,017.1,0000.0,0013.97,0003.11,0001.10
2024-06-05 16:02:00,SystemResetWarning,0828.6,5.01,000.00,029.1,027.6,000.0,037.6,030.6,017.6,0000.0,0013.95,0003.10,0001.10
2024-06-05 16:03:00,SystemResetWarning,0828.6,5.01,000.00,029.2,027.9,000.0,037.6,030.8,017.6,0000.0,0014.63,0003.12,0001.10
2024-06-05 16:04:00,SystemResetWarning,0828.6,4.99,000.00,029.2,028.2,000.0,037.6,030.9,016.9,0000.0,0015.20,0003.14,0001.10
2024-06-05 16:05:00,SystemResetWarning,0828.6,5.00,000.00,029.3,028.4,000.0,037.6,031.0,016.5,0000.0,0015.36,0003.09,0001.10
2024-06-05 16:06:00,SystemResetWarning,0828.6,4.99,000.00,029.3,028.6,000.0,037.6,031.1,016.9,0000.0,0014.90,0002.99,0001.08
2024-06-05 16:07:00,SystemResetWarning,0828.6,5.00,000.00,029.4,028.7,000.0,037.6,031.2,017.7,0000.0,0014.19,0002.97,0001.07
2024-06-05 16:08:00,SystemResetWarning,0828.7,5.00,000.00,029.5,028.9,000.0,037.6,031.3,017.4,0000.0,0013.76,0002.91,0001.06
2024-06-05 16:09:00,SystemResetWarning,0828.7,5.00,000.00,029.5,029.0,000.0,037.7,031.3,016.3,0000.0,0013.54,0002.79,0001.04
2024-06-05 16:10:00,SystemResetWarning,0828.7,5.00,000.00,029.6,029.1,000.0,037.7,031.4,016.7,0000.0,0013.72,0002.71,0001.02
2024-06-05 16:11:00,SystemResetWarning,0828.7,5.00,000.00,029.7,029.2,000.0,037.7,031.5,016.5,0000.0,0014.28,0002.75,0001.01
2024-06-05 16:12:00,SystemResetWarning,0828.7,5.00,000.00,029.7,029.3,000.0,037.8,031.6,016.4,0000.0,0013.91,0002.67,0001.02
2024-06-05 16:13:00,SystemResetWarning,0828.6,4.99,000.00,029.7,028.5,000.0,037.9,031.1,016.0,0000.0,0013.38,0002.63,0001.03
2024-06-05 16:14:00,SystemResetWarning,0828.6,5.00,000.00,029.3,026.3,000.0,037.9,030.0,017.0,0000.0,0012.71,0002.55,0001.01
2024-06-05 16:15:00,SystemResetWarning,0828.6,5.02,000.00,029.0,026.0,000.0,037.9,029.9,017.2,0000.0,0013.29,0002.56,0001.01
2024-06-05 16:16:00,SystemResetWarning,0828.6,4.99,000.00,029.0,026.6,000.0,037.8,030.1,016.7,0000.0,0014.22,0002.56,0001.01
2024-06-05 16:17:00,SystemResetWarning,0828.6,4.98,000.00,029.0,027.0,000.0,037.7,030.3,016.3,0000.0,0013.87,0002.63,0001.01
2024-06-05 16:18:00,SystemResetWarning,0828.6,5.01,000.00,029.0,027.4,000.0,037.6,030.5,016.7,0000.0,0013.58,0002.65,0001.01
2024-06-05 16:19:00,SystemResetWarning,0828.6,5.02,000.00,029.1,027.7,000.0,037.6,030.7,016.8,0000.0,0014.20,0002.63,0001.01
2024-06-05 16:20:00,SystemResetWarning,0828.6,5.00,000.00,029.2,028.0,000.0,037.5,030.8,016.7,0000.0,0014.56,0002.57,0001.02
2024-06-05 16:21:00,SystemResetWarning,0828.6,4.99,000.00,029.2,028.3,000.0,037.5,030.9,017.1,0000.0,0014.38,0002.59,0001.02
2024-06-05 16:22:00,SystemResetWarning,0828.6,4.99,000.00,029.3,028.5,000.0,037.5,031.0,016.3,0000.0,0014.27,0002.54,0001.01
2024-06-05 16:23:00,SystemResetWarning,0828.6,5.01,000.00,029.3,028.7,000.0,037.6,031.1,016.9,0000.0,0014.91,0002.50,0001.00
2024-06-05 16:24:00,SystemResetWarning,0828.6,5.00,000.00,029.4,028.8,000.0,037.6,031.2,017.0,0000.0,0014.38,0002.49,0001.00
2024-06-05 16:25:00,SystemResetWarning,0828.6,4.99,000.00,029.5,029.0,000.0,037.6,031.3,015.9,0000.0,0014.57,0002.51,0001.00
2024-06-05 16:26:00,SystemResetWarning,0828.6,5.00,000.00,029.6,029.1,000.0,037.6,031.4,016.7,0000.0,0013.64,0002.44,0000.99
2024-06-05 16:27:00,SystemResetWarning,0828.6,5.00,000.00,029.6,029.2,000.0,037.7,031.4,017.5,0000.0,0012.31,0002.41,0000.99
2024-06-05 16:28:00,SystemResetWarning,0828.6,5.00,000.00,029.7,029.1,000.0,037.7,031.4,017.5,0000.0,0012.89,0002.40,0000.98
2024-06-05 16:29:00,SystemResetWarning,0828.6,4.99,000.00,029.5,027.3,000.0,037.8,030.4,017.4,0000.0,0013.36,0002.43,0000.98
2024-06-05 16:30:00,SystemResetWarning,0828.6,5.01,000.00,029.1,025.9,000.0,037.8,029.7,017.9,0000.0,0012.57,0002.35,0000.99
2024-06-05 16:31:00,SystemResetWarning,0828.6,5.01,000.00,028.9,026.4,000.0,037.8,029.9,018.0,0000.0,0011.13,0002.33,0000.99
2024-06-05 16:32:00,SystemResetWarning,0828.6,4.99,000.00,028.9,026.8,000.0,037.6,030.2,018.7,0000.0,0010.77,0002.28,0000.98
2024-06-05 16:33:00,SystemResetWarning,0828.7,5.00,000.00,029.0,027.2,000.0,037.6,030.4,017.9,0000.0,0010.79,0002.28,0001.00
2024-06-05 16:34:00,SystemResetWarning,0828.6,5.00,000.00,029.0,027.6,000.0,037.5,030.6,017.0,0000.0,0010.07,0002.32,0001.01
2024-06-05 16:35:00,SystemResetWarning,0828.6,5.00,000.00,029.1,027.9,000.0,037.5,030.7,016.9,0000.0,0010.35,0002.36,0001.01
2024-06-05 16:36:00,SystemResetWarning,0828.6,5.00,000.00,029.1,028.2,000.0,037.5,030.9,017.7,0000.0,0010.63,0002.41,0001.00
2024-06-05 16:37:00,SystemResetWarning,0828.6,5.00,000.00,029.2,028.4,000.0,037.5,031.0,017.2,0000.0,0010.71,0002.38,0000.97
2024-06-05 16:38:00,SystemResetWarning,0828.6,5.00,000.00,029.3,028.6,000.0,037.5,031.1,016.6,0000.0,0010.97,0002.33,0000.96
2024-06-05 16:39:00,SystemResetWarning,0828.6,5.00,000.00,029.4,028.8,000.0,037.5,031.2,016.3,0000.0,0011.37,0002.31,0000.95
2024-06-05 16:40:00,SystemResetWarning,0828.6,5.00,000.00,029.4,028.9,000.0,037.5,031.2,016.1,0000.0,0011.62,0002.26,0000.94
2024-06-05 16:41:00,SystemResetWarning,0828.6,4.99,000.00,029.5,029.0,000.0,037.6,031.3,016.4,0000.0,0011.32,0002.26,0000.93
2024-06-05 16:42:00,SystemResetWarning,0828.6,5.00,000.00,029.6,029.1,000.0,037.6,031.4,016.3,0000.0,0011.85,0002.27,0000.94
2024-06-05 16:43:00,SystemResetWarning,0828.6,4.99,000.00,029.5,028.1,000.0,037.7,030.8,016.3,0000.0,0012.01,0002.27,0000.93
2024-06-05 16:44:00,SystemResetWarning,0828.5,5.02,000.00,029.1,026.1,000.0,037.7,029.9,017.3,0000.0,0011.88,0002.26,0000.92
2024-06-05 16:45:00,SystemResetWarning,0828.4,5.01,000.00,028.9,026.1,000.0,037.7,029.8,018.3,0000.0,0010.94,0002.24,0000.90
2024-06-05 16:46:00,SystemResetWarning,0828.4,5.00,000.00,028.9,026.6,000.0,037.6,030.0,017.2,0000.0,0010.82,0002.18,0000.88
2024-06-05 16:47:00,SystemResetWarning,0828.4,5.00,000.00,028.9,027.0,000.0,037.5,030.3,017.6,0000.0,0010.45,0002.09,0000.88
2024-06-05 16:48:00,SystemResetWarning,0828.4,5.00,000.00,028.9,027.4,000.0,037.4,030.5,017.8,0000.0,0010.68,0002.02,0000.88
2024-06-05 16:49:00,SystemResetWarning,0828.5,5.00,000.00,029.0,027.8,000.0,037.4,030.6,017.4,0000.0,0011.13,0002.12,0000.88
2024-06-05 16:50:00,SystemResetWarning,0828.5,5.00,000.00,029.1,028.1,000.0,037.4,030.8,017.4,0000.0,0009.93,0002.11,0000.87
2024-06-05 16:51:00,SystemResetWarning,0828.5,5.00,000.00,029.1,028.3,000.0,037.4,030.9,016.4,0000.0,0009.86,0002.02,0000.86
2024-06-05 16:52:00,SystemResetWarning,0828.5,5.00,000.00,029.2,028.5,000.0,037.4,031.0,016.5,0000.0,0009.64,0001.99,0000.84
2024-06-05 16:53:00,SystemResetWarning,0828.6,5.00,000.00,029.3,028.7,000.0,037.4,031.1,016.7,0000.0,0009.42,0001.91,0000.83
2024-06-05 16:54:00,SystemResetWarning,0828.5,5.00,000.00,029.4,028.8,000.0,037.5,031.2,016.7,0000.0,0009.16,0001.89,0000.82
2024-06-05 16:55:00,SystemResetWarning,0828.6,5.01,000.00,029.4,029.0,000.0,037.5,031.3,016.9,0000.0,0009.29,0001.91,0000.80
2024-06-05 16:56:00,SystemResetWarning,0828.6,5.00,000.00,029.5,029.1,000.0,037.5,031.3,016.7,0000.0,0009.09,0001.91,0000.80
2024-06-05 16:57:00,SystemResetWarning,0828.6,5.00,000.00,029.5,028.8,000.0,037.6,031.2,017.1,0000.0,0009.58,0001.96,0000.80
2024-06-05 16:58:00,SystemResetWarning,0828.5,4.98,000.00,029.3,026.7,000.0,037.7,030.2,016.8,0000.0,0012.01,0002.06,0000.80
2024-06-05 16:59:00,SystemResetWarning,0828.4,5.03,000.00,028.9,025.9,000.0,037.7,029.8,017.1,0000.0,0012.55,0002.16,0000.80
